{"data":{"norad_id":36121,"epoch":"2026-05-25T02:44:32.318016Z","epoch_age_seconds":65052,"freshness":"FRESH","line1":"1 36121U 09072A   26145.11426294 -.00000052  00000+0 -33026-4 0  9994","line2":"2 36121 100.2212  30.8435 0021389  17.8699 342.3156 13.05082383785668","mean_motion":13.05082383,"eccentricity":0.0021389,"inclination_deg":100.2212,"raan_deg":30.8435,"arg_perigee_deg":17.8699,"mean_anomaly_deg":342.3156,"bstar":-3.3026e-5,"rev_number":78566,"period_min":110.33786209648,"perigee_km":1225.9425076263,"apogee_km":1258.5409637819,"semimajor_km":7620.3787357041,"source":"CELESTRAK","updated_at":"2026-05-25T13:37:55.191098Z"}}